Simultaneous Nadir Overpasses (SNOs) Predictions

Prediction of SNOs between AQUA and METOP-C Satellite Orbit:

Table of predicted SNOs for the next 14.0 days since TLE Epoch: 6/16/2022
Index Date (AQUA) Time (AQUA) Lat,Lon (AQUA) SZA (AQUA ) Date (METOP-C) Time (METOP-C) Lat,Lon (METOP-C) SZA (METOP-C ) Distance(km) Time Diff (sec)
1 06/16/2022 02:07:33 -73.92, -37.25 129.43 06/16/2022 02:06:53 -73.93, -37.13 129.41 3.75 40
2 06/16/2022 02:57:01 73.96, 130.30 50.62 06/16/2022 02:57:31 73.98, 130.31 50.63 1.68 30
3 06/18/2022 20:51:48 73.81,-138.06 50.39 06/18/2022 20:50:36 73.74,-138.51 50.35 16.21 72
4 06/18/2022 21:41:16 -73.96, 29.26 129.46 06/18/2022 21:41:15 -73.93, 29.26 129.48 3.04 1
5 06/18/2022 22:30:44 74.00,-163.21 50.59 06/18/2022 22:31:52 74.02,-163.19 50.60 1.81 68
6 06/21/2022 16:25:33 73.93, -71.74 50.50 06/21/2022 16:24:55 73.92, -71.68 50.50 2.38 38
7 06/21/2022 17:14:59 -73.97, 95.81 129.46 06/21/2022 17:15:37 -73.97, 95.76 129.46 1.63 38
8 06/24/2022 11:09:47 -73.88,-172.68 129.52 06/24/2022 11:08:40 -73.87,-172.73 129.51 2.00 67
9 06/24/2022 11:59:15 73.93, -5.16 50.54 06/24/2022 11:59:17 73.95, -5.21 50.56 2.41 2
10 06/24/2022 12:48:44 -74.13, 162.05 129.25 06/24/2022 12:49:56 -74.15, 162.60 129.26 17.00 72
11 06/27/2022 06:43:28 -73.91,-106.16 129.39 06/27/2022 06:43:00 -73.95,-106.15 129.35 3.59 28
12 06/27/2022 07:32:56 73.97, 61.36 50.67 06/27/2022 07:33:38 73.97, 61.24 50.67 3.50 42



Historial Predications of SNOs between AQUA and METOP-C
